816  
ASUS44 KCRP 151310  
RWRCRP  
 
SOUTH TEXAS REGIONAL WEATHER ROUNDUP  
NATIONAL WEATHER SERVICE CORPUS CHRISTI TX  
800 AM CDT MON AUG 15 2022  
 
 
TXZ229>244-151400-   
..CORPUS CHRISTI AREA OBSERVATIONS
 
 
 
CITY SKY/WX TMP DP RH WIND PRES REMARKS
 
CORPUS CHRISTI CLOUDY 80 78 94 SE9 29.87S  
NAS CORPUS CHR CLOUDY 85 77 77 SE14 29.88R HX 95  
ROCKPORT CLOUDY 82 77 84 SE9 29.89S HX 90  
KINGSVILLE NAS CLOUDY 79 76 90 SE8 29.86S  
ALICE LGT RAIN 77 76 96 E5 29.87S  

 
   
..VICTORIA AREA OBSERVATIONS
 
 
 
CITY SKY/WX TMP DP RH WIND PRES REMARKS
 
PORT LAVACA CLOUDY 82 77 84 SE5 29.92S HX 90  
VICTORIA CLOUDY 78 77 96 NE3 29.92R  
BEEVILLE FAIR 73 71 95 NE5 29.89F  
PLEASANTON RAIN 74 73 96 CALM 29.92F  
SAN ANTONIO CLOUDY 74 72 93 E5 29.95S  

 
   
..LAREDO AREA OBSERVATIONS
 
 
 
CITY SKY/WX TMP DP RH WIND PRES REMARKS
 
LAREDO HVY RAIN 74 73 97 CALM 29.83R VSB 1  
COTULLA LGT RAIN 76 73 91 E13 29.88R  
DEL RIO LGT RAIN 74 72 93 NE7 29.91R  
MCALLEN CLOUDY 79 78 97 SE9 29.84S FOG  
HEBBRONVILLE TSTM 74 73 98 S15 29.86S  

 
   
..OTHER TEXAS OBSERVATIONS
 
 
 
CITY SKY/WX TMP DP RH WIND PRES REMARKS
 
BROWNSVILLE PTSUNNY 83 78 85 SE9 29.85S HX 93  
HOUSTON PTSUNNY 78 76 93 CALM 29.96R  
COL. STATION SUNNY 79 74 84 SE6 29.97R  
AUSTIN CLOUDY 76 73 91 SE3 29.96R  
TEMPLE MOSUNNY 74 70 87 CALM 29.99R  
WACO MOSUNNY 78 70 76 S3 29.98R  
FORT WORTH PTSUNNY 82 65 56 SW12 29.96R  
WICHITA FALLS MOSUNNY 78 67 68 CALM 29.96R  
LUBBOCK PTCLDY 73 60 63 SE3 30.06R  
EL PASO PTCLDY 74 52 46 SE5 30.01R  

 
   
..MARINE OBSERVATIONS
 
 
 
STATION/POSITION TIME SKY/WX TEMP WIND PRES VSBY WAVE SWELL
 
AIR SEA DIR/SP/G HT/PER HT/PER  
(UTC) (F) (DEG/KT/KT) (MB) (MI) (FT/S) (FT/S)  
PORT ARANSAS NOT AVBL  
ARANSAS PASS NOT AVBL  
BUOY 6 SE PORT A NOT AVBL  
BUOY 90 E PORT A NOT AVBL  
BUOY 45 SE BAFFI NOT AVBL  
BUOY 200 E PT IS NOT AVBL  
BUOY 15 E GALVES NOT AVBL  

 
 
 
CLICK HERE TO GO TO PREVIOUS BULLETINS.

The Nexlab TX Page Main Text Page